DW2380 Paimio FI current weather conditions

sailwx.info

Wind from 360

Air temperature 0.6° C
Dewpoint -0.1° C

Last reported at 2017-Dec-16 05:02 UTC.
Time now 2017-Dec-16 05:26 UTC

Location: N 60°28' E 022°40'.
View on Google Maps.

See reports from other nearby stations

  
Tides and Currents Weather Stations Pressure Air Temp Water Temp Dewpoint Dewpoint Depression Visibility Wind Speed Wind Dir Waves Ship Positions
date/time (UTC)wind fromknots sea level pressurealtimeterstation pressurevisibilityair tempwater tempwave heightnotes
2017-Dec-16 05:02 360 0.6
2017-Dec-16 04:47 360 0 gusting 4 0.6
2017-Dec-16 04:31 360 3 gusting 6 0.6
2017-Dec-16 04:16 360 0 gusting 2 0.6
2017-Dec-16 04:02 360 0.6
2017-Dec-16 03:47 360 0.6
2017-Dec-16 03:31 360 0.6
2017-Dec-16 03:20 360 0.6
2017-Dec-16 03:01 360 0 gusting 3 0.6
2017-Dec-16 02:45 360 1.1
2017-Dec-16 02:30 360 1 gusting 6 1.1
2017-Dec-16 02:14 360 3 gusting 10 1.1
2017-Dec-16 01:59 360 4 gusting 7 1.1
2017-Dec-16 01:45 360 4 gusting 7 1.1
2017-Dec-16 01:29 360 4 gusting 8 1.1
2017-Dec-16 01:15 360 2 gusting 6 1.1
2017-Dec-16 00:58 360 2 gusting 5 1.1
2017-Dec-16 00:44 360 2 gusting 6 0.6
2017-Dec-16 00:29 360 1 gusting 6 0.6
2017-Dec-16 00:14 360 3 gusting 9 1.1
2017-Dec-15 23:59 360 3 gusting 7 1.1
2017-Dec-15 23:43 360 4 gusting 8 1.1
2017-Dec-15 23:28 360 2 gusting 7 1.1
2017-Dec-15 23:12 360 4 gusting 8 1.1
2017-Dec-15 22:57 360 4 gusting 9 1.1
2017-Dec-15 22:42 360 3 gusting 9 1.1
2017-Dec-15 22:27 360 3 gusting 7 1.1
2017-Dec-15 22:12 360 3 gusting 9 1.1
2017-Dec-15 21:57 360 3 gusting 7 0.6
2017-Dec-15 21:43 360 3 gusting 6 0.6
2017-Dec-15 21:27 360 3 gusting 7 0.6
2017-Dec-15 21:13 360 4 gusting 8 0.6
2017-Dec-15 20:57 360 4 gusting 8 0.6
2017-Dec-15 20:42 360 4 gusting 9 0.6
2017-Dec-15 20:28 360 3 gusting 10 0.6
2017-Dec-15 20:12 360 4 gusting 9 0.6
2017-Dec-15 19:58 360 4 gusting 8 0.6
2017-Dec-15 19:42 360 4 gusting 13 1.1
2017-Dec-15 19:27 360 4 gusting 11 0.6
2017-Dec-15 19:12 360 6 gusting 9 1.1
2017-Dec-15 18:57 360 4 gusting 9 1.1
2017-Dec-15 18:40 360 5 gusting 11 1.1
2017-Dec-15 18:27 360 5 gusting 10 1.1
2017-Dec-15 18:13 360 6 gusting 12 1.7
2017-Dec-15 17:57 360 3 gusting 9 1.7
2017-Dec-15 17:42 360 3 gusting 10 1.7
2017-Dec-15 17:27 360 4 gusting 9 1.7
2017-Dec-15 17:09 360 5 gusting 10 1.7
2017-Dec-15 16:54 360 3 gusting 9 1.7
2017-Dec-15 16:39 360 4 gusting 9 1.1
2017-Dec-15 16:24 360 4 gusting 10 1.1
2017-Dec-15 16:09 360 4 gusting 9 1.1
2017-Dec-15 15:53 360 3 gusting 8 1.1
2017-Dec-15 15:38 360 2 gusting 6 1.1
2017-Dec-15 15:23 360 4 gusting 7 1.7
2017-Dec-15 15:08 360 3 gusting 6 1.7
2017-Dec-15 14:54 360 5 gusting 7 1.7
2017-Dec-15 14:38 360 3 gusting 6 1.1
2017-Dec-15 14:23 360 3 gusting 7 1.1
2017-Dec-15 14:07 360 4 gusting 6 1.1
2017-Dec-15 13:52 360 3 gusting 6 1.1
2017-Dec-15 13:38 360 1 gusting 6 1.1
2017-Dec-15 13:23 360 3 gusting 7 1.1
2017-Dec-15 13:07 360 3 gusting 7 1.1
2017-Dec-15 12:52 360 4 gusting 8 1.1
2017-Dec-15 12:36 360 4 gusting 7 1.1
2017-Dec-15 12:21 360 5 gusting 7 1.1
2017-Dec-15 12:06 360 4 gusting 8 1.1
2017-Dec-15 11:52 360 4 gusting 8 1.1
2017-Dec-15 11:36 360 4 gusting 7 1.1
2017-Dec-15 11:22 360 3 gusting 7 0.6
2017-Dec-15 11:06 360 2 gusting 6 0.6
2017-Dec-15 10:52 360 4 gusting 6 0.6
2017-Dec-15 10:36 360 2 gusting 6 0.6
2017-Dec-15 10:21 360 2 gusting 6 0.6
2017-Dec-15 10:06 360 3 gusting 6 0.6
2017-Dec-15 09:52 360 2 gusting 6 1.1
2017-Dec-15 09:36 360 3 gusting 8 0.6
2017-Dec-15 09:20 360 3 gusting 7 0.6
2017-Dec-15 09:06 360 5 gusting 10 0.6
2017-Dec-15 08:49 360 3 gusting 8 0.6
2017-Dec-15 08:34 360 4 gusting 8 0.6
2017-Dec-15 08:19 360 3 gusting 7 0.6
2017-Dec-15 08:04 360 3 gusting 7 0.6
2017-Dec-15 07:50 360 4 gusting 8 0.6
2017-Dec-15 07:33 360 3 gusting 12 0.6
2017-Dec-15 07:19 360 4 gusting 9 0.6
2017-Dec-15 07:04 360 5 gusting 10 0.6
2017-Dec-15 06:49 360 4 gusting 9 0.6
2017-Dec-15 06:33 360 2 gusting 8 0.6
2017-Dec-15 06:18 360 4 gusting 9 0.6
2017-Dec-15 06:03 360 6 gusting 10 0.6
2017-Dec-15 05:47 360 4 gusting 8 0.6
2017-Dec-15 05:32 360 3 gusting 12 0.6
2017-Dec-15 05:17 360 6 gusting 11 0.6
2017-Dec-15 05:02 360 3 gusting 10 0.6
2017-Dec-15 04:47 360 6 gusting 10 0.6
2017-Dec-15 04:33 360 4 gusting 10 0.6
2017-Dec-15 04:16 360 6 gusting 12 0.6
2017-Dec-15 04:01 360 8 gusting 14 0.6
2017-Dec-15 03:46 360 6 gusting 10 -0.0
2017-Dec-15 03:31 360 4 gusting 11 -0.0
2017-Dec-15 03:16 360 6 gusting 12 -0.0
2017-Dec-15 03:01 360 9 gusting 13 -0.0
2017-Dec-15 02:46 360 6 gusting 12 -0.0
2017-Dec-15 02:31 360 5 gusting 8 -0.0
2017-Dec-15 02:02 360 6 gusting 13 -0.0
2017-Dec-15 01:46 360 4 gusting 11 -0.0
2017-Dec-15 01:31 360 5 gusting 12 -0.0
2017-Dec-15 01:16 360 5 gusting 14 -0.0
2017-Dec-15 01:01 360 6 gusting 12 -0.0
2017-Dec-15 00:44 360 7 gusting 13 -0.0
2017-Dec-15 00:29 360 6 gusting 14 -0.6
2017-Dec-14 17:56 360 4 gusting 11 -1.1
2017-Dec-14 17:41 360 4 gusting 13 -0.6
2017-Dec-14 17:26 360 6 gusting 12 -0.6
2017-Dec-14 17:11 360 6 gusting 13 -0.6
2017-Dec-14 16:57 360 6 gusting 14 -0.6
2017-Dec-14 16:39 360 6 gusting 12 -0.6
2017-Dec-14 16:24 360 7 gusting 13 -0.6
2017-Dec-14 16:10 360 4 gusting 12 -0.6
2017-Dec-14 15:54 360 5 gusting 12 -0.6
2017-Dec-14 15:39 360 6 gusting 19 -0.6
2017-Dec-14 15:24 360 5 gusting 14 -0.6
2017-Dec-14 15:08 360 7 gusting 19 -0.6
2017-Dec-14 14:53 360 5 gusting 12 -0.6
2017-Dec-14 14:38 360 6 gusting 18 -0.6
2017-Dec-14 14:23 360 7 gusting 13 -0.6
2017-Dec-14 14:09 360 4 gusting 17 -0.6
2017-Dec-14 13:53 360 6 gusting 16 -0.6
2017-Dec-14 13:37 360 6 gusting 15 -0.6
2017-Dec-14 13:22 360 5 gusting 15 -0.0
2017-Dec-14 13:07 360 7 gusting 12 -0.0
2017-Dec-14 12:52 360 6 gusting 19 -0.0
2017-Dec-14 12:38 360 6 gusting 13 0.6
2017-Dec-14 12:22 360 9 gusting 13 0.6
2017-Dec-14 12:06 360 11 gusting 17 0.6
2017-Dec-14 11:51 360 7 gusting 19 0.6
2017-Dec-14 11:36 360 6 gusting 20 1.1
2017-Dec-14 11:21 360 6 gusting 24 1.1
2017-Dec-14 11:07 360 12 gusting 20 1.1
2017-Dec-14 10:52 360 9 gusting 18 1.1
2017-Dec-14 10:36 360 10 gusting 16 1.1
2017-Dec-14 10:21 360 4 gusting 14 1.7
2017-Dec-14 10:07 360 11 gusting 19 1.7
2017-Dec-14 09:51 360 6 gusting 20 1.7
2017-Dec-14 09:37 360 11 gusting 20 1.7
2017-Dec-14 09:21 360 9 gusting 19 1.7
2017-Dec-14 09:07 360 8 gusting 19 1.7
2017-Dec-14 08:49 360 10 gusting 19 1.7
2017-Dec-14 08:35 360 9 gusting 15 1.7
2017-Dec-14 08:19 360 9 gusting 13 1.7
2017-Dec-14 08:05 360 9 gusting 16 1.7
2017-Dec-14 07:50 360 8 gusting 18 1.1
2017-Dec-14 07:34 360 6 gusting 14 1.1
2017-Dec-14 07:18 360 6 gusting 17 1.1
2017-Dec-14 07:03 360 6 gusting 12 1.1
2017-Dec-14 06:48 360 11 gusting 19 1.1
2017-Dec-14 06:33 360 12 gusting 19 1.1
2017-Dec-14 06:18 360 10 gusting 21 1.1
2017-Dec-14 06:03 360 8 gusting 21 1.1
2017-Dec-14 05:47 360 6 gusting 22 1.7
2017-Dec-14 05:32 360 6 gusting 16 1.7
2017-Dec-14 05:17 360 10 gusting 19 1.7
2017-Dec-14 05:02 360 11 gusting 19 1.7